| time (UTC) | temp F | wind direction | speed MPH | gust MPH | rain 1hr in | rain 24hr in | rain mn in | humidity % | barometer mb |
| 20260504222019 | 78 | 233 | 9.0 | 23.0 | 0.00 | 0.00 | 0.00 | 30 | 995.7 |
| 20260504221531 | 77 | 261 | 12.0 | 21.0 | 0.00 | 0.00 | 0.00 | 29 | 995.8 |
| 20260504221015 | 77 | 246 | 11.0 | 21.0 | 0.00 | 0.00 | 0.00 | 29 | 995.7 |
| 20260504220515 | 78 | 184 | 11.0 | 21.0 | 0.00 | 0.00 | 0.00 | 30 | 995.8 |
| 20260504220039 | 77 | 237 | 14.0 | 23.0 | 0.00 | 0.00 | 0.00 | 30 | 995.7 |
| 20260504215515 | 77 | 240 | 11.0 | 26.0 | 0.00 | 0.00 | 0.00 | 30 | 995.8 |
| 20260504215015 | 77 | 300 | 13.0 | 26.0 | 0.00 | 0.00 | 0.00 | 30 | 995.8 |
| 20260504214538 | 77 | 250 | 9.0 | 25.0 | 0.00 | 0.00 | 0.00 | 32 | 995.9 |
| 20260504214018 | 77 | 242 | 13.0 | 26.0 | 0.00 | 0.00 | 0.00 | 30 | 995.9 |
| 20260504213515 | 77 | 236 | 12.0 | 33.0 | 0.00 | 0.00 | 0.00 | 30 | 996.0 |
| 20260504213034 | 77 | 248 | 15.0 | 33.0 | 0.00 | 0.00 | 0.00 | 30 | 996.0 |
| 20260504212515 | 77 | 240 | 16.0 | 31.0 | 0.00 | 0.00 | 0.00 | 30 | 996.1 |
| 20260504212019 | 77 | 244 | 16.0 | 31.0 | 0.00 | 0.00 | 0.00 | 30 | 996.1 |
| 20260504211535 | 77 | 210 | 14.0 | 32.0 | 0.00 | 0.00 | 0.00 | 30 | 996.1 |
| 20260504211015 | 77 | 246 | 13.0 | 32.0 | 0.00 | 0.00 | 0.00 | 30 | 996.2 |
| 20260504210516 | 77 | 229 | 13.0 | 29.0 | 0.00 | 0.00 | 0.00 | 31 | 996.2 |
| 20260504210031 | 77 | 247 | 16.0 | 29.0 | 0.00 | 0.00 | 0.00 | 30 | 996.4 |
| 20260504205515 | 77 | 243 | 13.0 | 28.0 | 0.00 | 0.00 | 0.00 | 30 | 996.3 |
| 20260504205016 | 78 | 206 | 7.0 | 24.0 | 0.00 | 0.00 | 0.00 | 31 | 996.4 |
| 20260504204530 | 77 | 265 | 12.0 | 26.0 | 0.00 | 0.00 | 0.00 | 32 | 996.5 |
| 20260504204015 | 76 | 222 | 13.0 | 26.0 | 0.00 | 0.00 | 0.00 | 31 | 996.5 |
| 20260504203518 | 77 | 232 | 11.0 | 28.0 | 0.00 | 0.00 | 0.00 | 31 | 996.5 |
| 20260504203035 | 76 | 257 | 12.0 | 28.0 | 0.00 | 0.00 | 0.00 | 31 | 996.6 |
| 20260504202515 | 76 | 257 | 11.0 | 29.0 | 0.00 | 0.00 | 0.00 | 31 | 996.7 |
| 20260504202015 | 76 | 252 | 14.0 | 29.0 | 0.00 | 0.00 | 0.00 | 29 | 996.8 |
| 20260504201532 | 76 | 222 | 7.0 | 26.0 | 0.00 | 0.00 | 0.00 | 32 | 996.8 |
| 20260504201018 | 75 | 245 | 11.0 | 25.0 | 0.00 | 0.00 | 0.00 | 31 | 996.8 |
| 20260504200515 | 76 | 176 | 13.0 | 25.0 | 0.00 | 0.00 | 0.00 | 32 | 996.8 |
| 20260504200031 | 75 | 306 | 13.0 | 25.0 | 0.00 | 0.00 | 0.00 | 30 | 996.9 |
| 20260504195515 | 76 | 275 | 10.0 | 30.0 | 0.00 | 0.00 | 0.00 | 31 | 996.8 |
| 20260504195016 | 76 | 261 | 10.0 | 30.0 | 0.00 | 0.00 | 0.00 | 30 | 997.0 |
| 20260504194532 | 75 | 228 | 14.0 | 29.0 | 0.00 | 0.00 | 0.00 | 30 | 996.9 |
| 20260504194017 | 75 | 223 | 15.0 | 29.0 | 0.00 | 0.00 | 0.00 | 30 | 997.0 |
| 20260504193514 | 75 | 243 | 14.0 | 31.0 | 0.00 | 0.00 | 0.00 | 30 | 997.1 |
| 20260504193031 | 76 | 159 | 15.0 | 31.0 | 0.00 | 0.00 | 0.00 | 30 | 996.9 |
| 20260504192515 | 76 | 317 | 16.0 | 31.0 | 0.00 | 0.00 | 0.00 | 29 | 997.1 |
| 20260504192015 | 76 | 271 | 11.0 | 27.0 | 0.00 | 0.00 | 0.00 | 29 | 997.1 |
| 20260504191529 | 77 | 288 | 12.0 | 27.0 | 0.00 | 0.00 | 0.00 | 30 | 997.2 |
| 20260504191015 | 77 | 239 | 11.0 | 27.0 | 0.00 | 0.00 | 0.00 | 29 | 997.1 |
| 20260504190515 | 76 | 263 | 16.0 | 27.0 | 0.00 | 0.00 | 0.00 | 28 | 997.2 |
| 20260504190032 | 77 | 197 | 11.0 | 27.0 | 0.00 | 0.00 | 0.00 | 29 | 997.0 |
| 20260504185515 | 76 | 211 | 9.0 | 22.0 | 0.00 | 0.00 | 0.00 | 29 | 997.1 |
| 20260504185018 | 76 | 267 | 12.0 | 26.0 | 0.00 | 0.00 | 0.00 | 29 | 997.1 |
| 20260504184534 | 76 | 242 | 12.0 | 27.0 | 0.00 | 0.00 | 0.00 | 29 | 997.1 |
| 20260504184016 | 76 | 235 | 14.0 | 27.0 | 0.00 | 0.00 | 0.00 | 28 | 997.2 |
| 20260504183516 | 76 | 234 | 11.0 | 27.0 | 0.00 | 0.00 | 0.00 | 28 | 997.3 |
| 20260504183035 | 76 | 229 | 13.0 | 27.0 | 0.00 | 0.00 | 0.00 | 27 | 997.3 |
| 20260504182515 | 76 | 303 | 9.0 | 29.0 | 0.00 | 0.00 | 0.00 | 29 | 997.4 |
| 20260504182017 | 75 | 240 | 11.0 | 29.0 | 0.00 | 0.00 | 0.00 | 29 | 997.4 |
| 20260504181538 | 75 | 270 | 14.0 | 25.0 | 0.00 | 0.00 | 0.00 | 28 | 997.4 |
| 20260504181018 | 76 | 248 | 11.0 | 22.0 | 0.00 | 0.00 | 0.00 | 29 | 997.4 |
| 20260504180516 | 75 | 223 | 12.0 | 26.0 | 0.00 | 0.00 | 0.00 | 29 | 997.5 |
| 20260504180035 | 75 | 239 | 14.0 | 26.0 | 0.00 | 0.00 | 0.00 | 29 | 997.6 |
| 20260504175515 | 75 | 223 | 12.0 | 21.0 | 0.00 | 0.00 | 0.00 | 28 | 997.6 |
| 20260504175015 | 75 | 257 | 11.0 | 29.0 | 0.00 | 0.00 | 0.00 | 29 | 997.5 |
| 20260504174537 | 74 | 268 | 11.0 | 29.0 | 0.00 | 0.00 | 0.00 | 30 | 997.7 |
| 20260504174016 | 75 | 292 | 11.0 | 26.0 | 0.00 | 0.00 | 0.00 | 30 | 997.7 |
| 20260504173516 | 74 | 270 | 14.0 | 31.0 | 0.00 | 0.00 | 0.00 | 31 | 997.7 |
| 20260504173032 | 74 | 229 | 14.0 | 31.0 | 0.00 | 0.00 | 0.00 | 29 | 997.8 |
| 20260504172517 | 74 | 175 | 11.0 | 31.0 | 0.00 | 0.00 | 0.00 | 30 | 997.9 |
| 20260504172016 | 73 | 199 | 14.0 | 31.0 | 0.00 | 0.00 | 0.00 | 30 | 997.9 |
| 20260504171536 | 73 | 232 | 14.0 | 26.0 | 0.00 | 0.00 | 0.00 | 30 | 998.0 |
| 20260504171021 | 73 | 234 | 14.0 | 26.0 | 0.00 | 0.00 | 0.00 | 29 | 998.0 |
| 20260504170515 | 74 | 263 | 12.0 | 26.0 | 0.00 | 0.00 | 0.00 | 30 | 998.1 |
| 20260504151017 | 70 | 325 | 11.0 | 21.0 | 0.00 | 0.00 | 0.00 | 33 | 999.6 |
| 20260504150516 | 70 | 235 | 8.0 | 23.0 | 0.00 | 0.00 | 0.00 | 32 | 999.5 |
| 20260504141015 | 67 | 192 | 12.0 | 21.0 | 0.00 | 0.00 | 0.00 | 34 | 1000.3 |
| 20260504140515 | 67 | 259 | 11.0 | 22.0 | 0.00 | 0.00 | 0.00 | 35 | 1000.5 |
| 20260504130517 | 61 | 192 | 6.0 | 12.0 | 0.00 | 0.00 | 0.00 | 45 | 1001.1 |
| 20260504110519 | 49 | 210 | 1.0 | 3.0 | 0.00 | 0.00 | 0.00 | 64 | 1001.4 |
| 20260504100517 | 50 | 217 | 1.0 | 2.0 | 0.00 | 0.00 | 0.00 | 61 | 1001.7 |
| 20260504081537 | 51 | 252 | 1.0 | 2.0 | 0.00 | 0.00 | 0.00 | 65 | 1003.1 |
| 20260504081015 | 51 | 251 | 0.0 | 2.0 | 0.00 | 0.00 | 0.00 | 63 | 1003.2 |
| 20260504080515 | 51 | 248 | 1.0 | 2.0 | 0.00 | 0.00 | 0.00 | 63 | 1003.2 |
| 20260504050512 | 54 | 265 | 1.0 | 2.0 | 0.00 | 0.00 | 0.00 | 62 | 1004.2 |
| 20260504045511 | 55 | 255 | 1.0 | 4.0 | 0.00 | 0.00 | 0.00 | 61 | 1004.3 |
| 20260504045014 | 55 | 249 | 1.0 | 4.0 | 0.00 | 0.00 | 0.00 | 61 | 1004.3 |
| 20260504044531 | 55 | 243 | 1.0 | 4.0 | 0.00 | 0.00 | 0.00 | 61 | 1004.3 |
| 20260504044016 | 55 | 236 | 1.0 | 4.0 | 0.00 | 0.00 | 0.00 | 61 | 1004.3 |
| 20260504043516 | 55 | 240 | 1.0 | 3.0 | 0.00 | 0.00 | 0.00 | 61 | 1004.4 |
| 20260504043030 | 55 | 236 | 1.0 | 2.0 | 0.00 | 0.00 | 0.00 | 61 | 1004.4 |
| 20260504042517 | 55 | 257 | 1.0 | 2.0 | 0.00 | 0.00 | 0.00 | 62 | 1004.4 |
| 20260504042015 | 55 | 252 | 1.0 | 2.0 | 0.00 | 0.00 | 0.00 | 61 | 1004.4 |
| 20260504041530 | 55 | 269 | 0.0 | 2.0 | 0.00 | 0.00 | 0.00 | 61 | 1004.4 |
| 20260504041015 | 55 | 249 | 1.0 | 2.0 | 0.00 | 0.00 | 0.00 | 61 | 1004.4 |
| 20260504040513 | 56 | 240 | 1.0 | 2.0 | 0.00 | 0.00 | 0.00 | 59 | 1004.4 |
| 20260504040033 | 56 | 257 | 1.0 | 2.0 | 0.00 | 0.00 | 0.00 | 59 | 1004.5 |
| 20260504035513 | 56 | 233 | 1.0 | 2.0 | 0.00 | 0.00 | 0.00 | 59 | 1004.6 |
| 20260504035013 | 56 | 230 | 1.0 | 2.0 | 0.00 | 0.00 | 0.00 | 59 | 1004.6 |
| 20260504034535 | 57 | 234 | 1.0 | 2.0 | 0.00 | 0.00 | 0.00 | 58 | 1004.6 |
| 20260504034015 | 57 | 229 | 1.0 | 2.0 | 0.00 | 0.00 | 0.00 | 58 | 1004.6 |
| 20260504033513 | 57 | 221 | 1.0 | 3.0 | 0.00 | 0.00 | 0.00 | 57 | 1004.7 |
| 20260504033046 | 58 | 221 | 2.0 | 3.0 | 0.00 | 0.00 | 0.00 | 56 | 1004.7 |
| 20260504032513 | 58 | 236 | 2.0 | 5.0 | 0.00 | 0.00 | 0.00 | 56 | 1004.7 |
| 20260504032016 | 58 | 242 | 2.0 | 5.0 | 0.00 | 0.00 | 0.00 | 55 | 1004.8 |
| 20260504031532 | 58 | 236 | 2.0 | 5.0 | 0.00 | 0.00 | 0.00 | 55 | 1004.8 |
| 20260504031015 | 58 | 232 | 2.0 | 5.0 | 0.00 | 0.00 | 0.00 | 56 | 1004.9 |
| 20260504030514 | 58 | 253 | 2.0 | 4.0 | 0.00 | 0.00 | 0.00 | 56 | 1004.8 |
| 20260504030032 | 58 | 229 | 1.0 | 3.0 | 0.00 | 0.00 | 0.00 | 55 | 1004.8 |
| 20260504025516 | 58 | 255 | 1.0 | 2.0 | 0.00 | 0.00 | 0.00 | 56 | 1004.8 |
| 20260504025019 | 58 | 241 | 1.0 | 3.0 | 0.00 | 0.00 | 0.00 | 55 | 1004.7 |
| 20260504024542 | 59 | 241 | 1.0 | 3.0 | 0.00 | 0.00 | 0.00 | 54 | 1004.7 |
| 20260504024015 | 59 | 205 | 2.0 | 4.0 | 0.00 | 0.00 | 0.00 | 54 | 1004.7 |
| 20260504023515 | 60 | 213 | 2.0 | 4.0 | 0.00 | 0.00 | 0.00 | 53 | 1004.6 |
| 20260504023031 | 60 | 225 | 2.0 | 4.0 | 0.00 | 0.00 | 0.00 | 53 | 1004.5 |
| 20260504022514 | 60 | 225 | 1.0 | 6.0 | 0.00 | 0.00 | 0.00 | 53 | 1004.5 |
| 20260504022017 | 60 | 213 | 2.0 | 6.0 | 0.00 | 0.00 | 0.00 | 52 | 1004.5 |
| 20260504021530 | 60 | 225 | 2.0 | 6.0 | 0.00 | 0.00 | 0.00 | 52 | 1004.5 |
| 20260504021013 | 61 | 223 | 2.0 | 5.0 | 0.00 | 0.00 | 0.00 | 51 | 1004.4 |
| 20260504020514 | 61 | 209 | 3.0 | 5.0 | 0.00 | 0.00 | 0.00 | 51 | 1004.3 |
| 20260504020031 | 61 | 207 | 2.0 | 5.0 | 0.00 | 0.00 | 0.00 | 51 | 1004.2 |
| 20260504015514 | 61 | 221 | 2.0 | 5.0 | 0.00 | 0.00 | 0.00 | 51 | 1004.3 |
| 20260504015014 | 61 | 215 | 3.0 | 5.0 | 0.00 | 0.00 | 0.00 | 50 | 1004.3 |
| 20260504014532 | 61 | 237 | 2.0 | 6.0 | 0.00 | 0.00 | 0.00 | 50 | 1004.2 |
| 20260504014016 | 62 | 208 | 2.0 | 6.0 | 0.00 | 0.00 | 0.00 | 49 | 1004.2 |
| 20260504013513 | 62 | 212 | 2.0 | 5.0 | 0.00 | 0.00 | 0.00 | 49 | 1004.2 |
| 20260504013031 | 62 | 227 | 2.0 | 8.0 | 0.00 | 0.00 | 0.00 | 49 | 1004.2 |
| 20260504012516 | 62 | 243 | 3.0 | 8.0 | 0.00 | 0.00 | 0.00 | 48 | 1004.2 |
| 20260504012015 | 62 | 230 | 3.0 | 6.0 | 0.00 | 0.00 | 0.00 | 48 | 1004.2 |
| 20260504011532 | 63 | 214 | 2.0 | 6.0 | 0.00 | 0.00 | 0.00 | 48 | 1004.1 |
| 20260504011013 | 63 | 196 | 3.0 | 6.0 | 0.00 | 0.00 | 0.00 | 47 | 1004.1 |
| 20260504010517 | 63 | 232 | 3.0 | 6.0 | 0.00 | 0.00 | 0.00 | 47 | 1004.2 |
| 20260504010030 | 63 | 201 | 3.0 | 6.0 | 0.00 | 0.00 | 0.00 | 47 | 1004.2 |
| 20260504005513 | 64 | 216 | 3.0 | 6.0 | 0.00 | 0.00 | 0.00 | 46 | 1004.2 |
| 20260504005015 | 64 | 203 | 3.0 | 7.0 | 0.00 | 0.00 | 0.00 | 46 | 1004.2 |
| 20260504004540 | 64 | 223 | 3.0 | 7.0 | 0.00 | 0.00 | 0.00 | 45 | 1004.3 |
| 20260504004014 | 64 | 195 | 4.0 | 8.0 | 0.00 | 0.00 | 0.00 | 45 | 1004.2 |
| 20260504003514 | 65 | 222 | 4.0 | 9.0 | 0.00 | 0.00 | 0.00 | 45 | 1004.4 |
| 20260504003030 | 65 | 251 | 3.0 | 11.0 | 0.00 | 0.00 | 0.00 | 45 | 1004.3 |
| 20260504002514 | 65 | 243 | 4.0 | 11.0 | 0.00 | 0.00 | 0.00 | 45 | 1004.3 |
| 20260504002017 | 65 | 233 | 5.0 | 11.0 | 0.00 | 0.00 | 0.00 | 44 | 1004.2 |
| 20260504001530 | 65 | 290 | 3.0 | 12.0 | 0.00 | 0.00 | 0.00 | 44 | 1004.2 |
| 20260504001017 | 65 | 256 | 6.0 | 14.0 | 0.00 | 0.00 | 0.00 | 44 | 1004.1 |
| 20260504000517 | 66 | 250 | 5.0 | 14.0 | 0.00 | 0.00 | 0.00 | 43 | 1004.0 |
| 20260504000029 | 66 | 271 | 6.0 | 12.0 | 0.00 | 0.00 | 0.00 | 43 | 1004.0 |
| 20260503235513 | 66 | 254 | 7.0 | 12.0 | 0.00 | 0.00 | 0.00 | 43 | 1004.0 |
| 20260503235015 | 66 | 234 | 5.0 | 12.0 | 0.00 | 0.00 | 0.00 | 43 | 1003.9 |
| 20260503234532 | 66 | 227 | 7.0 | 15.0 | 0.00 | 0.00 | 0.00 | 43 | 1003.9 |
| 20260503234015 | 66 | 252 | 5.0 | 15.0 | 0.00 | 0.00 | 0.00 | 42 | 1003.9 |
| 20260503233514 | 66 | 250 | 4.0 | 15.0 | 0.00 | 0.00 | 0.00 | 43 | 1004.0 |
| 20260503233031 | 66 | 275 | 7.0 | 15.0 | 0.00 | 0.00 | 0.00 | 42 | 1004.2 |
| 20260503232515 | 66 | 283 | 7.0 | 18.0 | 0.00 | 0.00 | 0.00 | 43 | 1004.2 |
| 20260503232015 | 66 | 277 | 9.0 | 18.0 | 0.00 | 0.00 | 0.00 | 42 | 1004.2 |
| 20260503231533 | 66 | 294 | 9.0 | 18.0 | 0.00 | 0.00 | 0.00 | 41 | 1004.3 |
| 20260503231015 | 67 | 285 | 7.0 | 18.0 | 0.00 | 0.00 | 0.00 | 42 | 1004.3 |
| 20260503230517 | 67 | 315 | 10.0 | 18.0 | 0.00 | 0.00 | 0.00 | 41 | 1004.3 |
| 20260503230030 | 67 | 275 | 8.0 | 18.0 | 0.00 | 0.00 | 0.00 | 41 | 1004.3 |
| 20260503225517 | 67 | 251 | 7.0 | 15.0 | 0.00 | 0.00 | 0.00 | 42 | 1004.2 |
| 20260503225018 | 67 | 252 | 7.0 | 16.0 | 0.00 | 0.00 | 0.00 | 41 | 1004.1 |
| 20260503224535 | 66 | 306 | 8.0 | 18.0 | 0.00 | 0.00 | 0.00 | 41 | 1004.1 |
| 20260503224018 | 67 | 233 | 9.0 | 18.0 | 0.00 | 0.00 | 0.00 | 41 | 1003.9 |
| 20260503223516 | 67 | 253 | 8.0 | 18.0 | 0.00 | 0.00 | 0.00 | 41 | 1004.3 |
| 20260503223037 | 67 | 243 | 5.0 | 18.0 | 0.00 | 0.00 | 0.00 | 42 | 1004.4 |
| 20260503222515 | 66 | 288 | 9.0 | 22.0 | 0.00 | 0.00 | 0.00 | 41 | 1004.4 |